This is the latest recevied weather packets stored in our database for station/object KB1WCR. If no packets are shown the sender has not sent any weather packets the latest 10 day(s).
| Time | Temp. | Humidity | Pressure | Rain* | Wind** | Luminosity | Snow |
|---|---|---|---|---|---|---|---|
| 1777827826 | 8.89° C | 71% | 1004.7 hPa | 0 mm | - | 224 W/m² | - |
| 1777827523 | 8.89° C | 70% | 1004.7 hPa | 0 mm | - | 272 W/m² | - |
| 1777827221 | 8.89° C | 73% | 1004.8 hPa | 0 mm | - | 303 W/m² | - |
| 1777826917 | 8.33° C | 71% | 1004.8 hPa | 0 mm | - | 276 W/m² | - |
| 1777826615 | 8.33° C | 73% | 1004.8 hPa | 0 mm | - | 227 W/m² | - |
| 1777826310 | 8.33° C | 73% | 1004.7 hPa | 0 mm | - | 239 W/m² | - |
| 1777826009 | 8.89° C | 74% | 1004.6 hPa | 0 mm | - | 248 W/m² | - |
| 1777825705 | 8.33° C | 75% | 1004.7 hPa | 0 mm | - | 283 W/m² | - |
| 1777825403 | 8.33° C | 76% | 1004.8 hPa | 0 mm | - | 235 W/m² | - |
| 1777825100 | 8.33° C | 77% | 1005 hPa | 0 mm | - | 278 W/m² | - |
| 1777824796 | 8.33° C | 79% | 1005 hPa | 0 mm | - | 240 W/m² | - |
| 1777824493 | 7.78° C | 79% | 1005 hPa | 0 mm | - | 191 W/m² | - |
| 1777824189 | 7.78° C | 78% | 1005 hPa | 0 mm | - | 163 W/m² | - |
| 1777823884 | 7.78° C | 80% | 1005 hPa | 0 mm | - | 249 W/m² | - |
| 1777823583 | 8.33° C | 80% | 1005 hPa | 0 mm | - | 199 W/m² | - |
| 1777823279 | 8.33° C | 82% | 1005 hPa | 0 mm | - | 287 W/m² | - |
| 1777822977 | 8.33° C | 80% | 1005 hPa | 0 mm | - | 345 W/m² | - |
| 1777822675 | 8.33° C | 81% | 1005.1 hPa | 0 mm | - | 394 W/m² | - |
| 1777822373 | 8.33° C | 80% | 1004.9 hPa | 0 mm | - | 379 W/m² | - |
| 1777822070 | 8.33° C | 81% | 1005 hPa | 0 mm | - | 525 W/m² | - |
| 1777821768 | 7.78° C | 83% | 1004.9 hPa | 0 mm | - | 487 W/m² | - |
| 1777821464 | 7.78° C | 84% | 1005 hPa | 0 mm | - | 412 W/m² | - |
| 1777821162 | 7.78° C | 84% | 1005.2 hPa | 0 mm | - | 311 W/m² | - |
| 1777820859 | 7.78° C | 84% | 1004.9 hPa | 0 mm | - | 286 W/m² | - |
| 1777820555 | 7.78° C | 84% | 1005.1 hPa | 0 mm | - | 357 W/m² | - |
* Rain latest hour (hover to see other rain measurements)
** Current wind speed in m/s (hover to see current wind gust speed)